Tracking 20083 objects as of 12-Dec-2019
HD Live streaming from Space Station
objects crossing your sky now

COSMOS 1244

Track COSMOS 1244 now!
10-day predictions
COSMOS 1244 is classified as:


NORAD ID: 12297
Int'l Code: 1981-013A
Perigee: 966.6 km
Apogee: 1,011.0 km
Inclination: 83.0 °
Period: 104.7 minutes
Semi major axis: 7359 km
RCS: 2.3625 m2 (large)
Launch date: February 12, 1981
Source: Commonwealth of Independent States (former USSR) (CIS)
Launch site: PLESETSK MISSILE AND SPACE COMPLEX (PKMTR)
aabbcc
Your satellite tracking list
Your tracking list is empty




NASA's NSSDC Master Catalog

Two Line Element Set (TLE):
1 12297U 81013A   19345.73509021 +.00000035 +00000-0 +20503-4 0  9995
2 12297 082.9540 046.2011 0030098 353.9042 123.3427 13.75004222592252
Source of the keplerian elements: AFSPC